Voltar ao catálogo

CZ-6A DEB

AtivoSSO
NORAD 54995·DEBRIS·🇨🇳 China

Lançado Nov 11, 2022 de Taiyuan Satellite Launch Center

Loading…

Próximas Passagens (próximas 24 horas)

TLE

AtualizadoSource: Space-Track

Época: Sep 14, 2026, 02:41 UTC

1 54995U 22151UL  26257.11217394  .00004826  00000-0  95873-3 0  9998
2 54995  98.6313 321.4106 0068599  30.1646 330.3476 14.61151245131010

Acompanhe CZ-6A DEB em tempo real com AllMySat

Download on the App Store